Tracking 18843 objects as of 21-November-2017
HD Live streaming from Space Station
objects crossing your sky now

CHUANG XIN 1 (CZ-1)

Track CHUANG XIN 1 (CZ-1) now!
10-day predictions
CHUANG XIN 1 (CZ-1) is classified as:


NORAD ID: 28058
Int'l Code: 2003-049B
Perigee: 734.6 km
Apogee: 751.3 km
Inclination: 98.6 °
Period: 99.5 minutes
Semi major axis: 7113 km
RCS: 0.5789 m2 (medium)
Launch date: October 21, 2003
Source: People's Republic of China (PRC)
Launch site: Taiyaun Space Center, China (TSC)

Prototype of advanced telecommunications satellite for LEO.
aabbcc
Your satellite tracking list
Your tracking list is empty




NASA's NSSDC Master Catalog

Two Line Element Set (TLE):
1 28058U 03049B   17324.88381182  .00000028  00000-0  20350-4 0  9999
2 28058  98.6341 106.6083 0011739 266.8886  93.0962 14.46898653743473
Source of the keplerian elements: AFSPC